PBD942 LTFM-URML

Flight info

Callsign PBD942
Flight time 2h 9m
Altitude 37000
Route OSMEV DCT ERMUP DCT RERVA DCT ODIRA/K0857F370 G487 GUBOR A944 BEMES R227 KZ B122 INGUT INGUT1J
Aircraft B738/M-SDE2E3FGHIRWXY/LB1

Departure

Time 2026-04-25 02:13
Airport İstanbul Airport (LTFM)

Arrival

Time 2026-04-25 04:23
Airport Makhachkala Uytash International Airport (URML)
Time Latitude Longitude Altitude Speed Heading
2026-04-25 01:58 41.26868 28.74138 333 ft 0 kts 90°
2026-04-25 02:03 41.26867 28.74126 333 ft 2 kts 86°
2026-04-25 02:04 41.26866 28.74104 330 ft 2 kts 81°
2026-04-25 02:04 41.26862 28.74083 329 ft 2 kts 71°
2026-04-25 02:04 41.26856 28.74062 328 ft 2 kts 59°
2026-04-25 02:04 41.26846 28.74045 333 ft 2 kts 44°
2026-04-25 02:05 41.26833 28.74031 329 ft 2 kts 27°
2026-04-25 02:05 41.26817 28.74023 331 ft 2 kts 13°
2026-04-25 02:05 41.26801 28.74020 329 ft 2 kts
2026-04-25 02:05 41.26794 28.74019 328 ft 1 kts
2026-04-25 02:06 41.26796 28.74019 328 ft 2 kts 359°
2026-04-25 02:07 41.26837 28.74018 331 ft 10 kts 359°
2026-04-25 02:07 41.26939 28.74015 331 ft 18 kts 359°
2026-04-25 02:07 41.27050 28.74051 332 ft 15 kts 63°
2026-04-25 02:07 41.27056 28.74187 332 ft 15 kts 89°
2026-04-25 02:08 41.27058 28.74324 332 ft 16 kts 89°
2026-04-25 02:08 41.27060 28.74480 332 ft 18 kts 89°
2026-04-25 02:08 41.27062 28.74664 330 ft 22 kts 89°
2026-04-25 02:08 41.27065 28.74885 332 ft 26 kts 89°
2026-04-25 02:09 41.27068 28.75126 333 ft 27 kts 89°
2026-04-25 02:09 41.27076 28.75336 329 ft 15 kts 63°
2026-04-25 02:09 41.27175 28.75369 332 ft 17 kts 359°
2026-04-25 02:09 41.27305 28.75366 330 ft 21 kts 359°
2026-04-25 02:10 41.27462 28.75363 333 ft 25 kts 359°
2026-04-25 02:10 41.27650 28.75358 331 ft 29 kts 359°
2026-04-25 02:10 41.27856 28.75353 330 ft 30 kts 359°
2026-04-25 02:10 41.28071 28.75348 332 ft 31 kts 359°
2026-04-25 02:11 41.28284 28.75344 333 ft 31 kts 359°
2026-04-25 02:11 41.28496 28.75339 331 ft 30 kts 359°
2026-04-25 02:11 41.28702 28.75334 333 ft 26 kts 359°
2026-04-25 02:11 41.28814 28.75374 331 ft 15 kts 68°
2026-04-25 02:12 41.28819 28.75510 333 ft 14 kts 89°
2026-04-25 02:12 41.28785 28.75617 332 ft 13 kts 166°
2026-04-25 02:12 41.28688 28.75622 332 ft 29 kts 178°
2026-04-25 02:12 41.28227 28.75630 332 ft 102 kts 179°
2026-04-25 02:13 41.27299 28.75648 333 ft 162 kts 179°
2026-04-25 02:13 41.26148 28.75665 758 ft 177 kts 179°
2026-04-25 02:13 41.24983 28.75978 1759 ft 173 kts 149°
2026-04-25 02:13 41.23990 28.76916 2379 ft 186 kts 144°
2026-04-25 02:14 41.22846 28.77997 2654 ft 213 kts 144°
2026-04-25 02:14 41.21595 28.79186 2897 ft 233 kts 143°
2026-04-25 02:14 41.20256 28.80459 3393 ft 240 kts 143°
2026-04-25 02:14 41.18967 28.81878 4026 ft 241 kts 127°
2026-04-25 02:15 41.18324 28.83892 4761 ft 238 kts 98°
2026-04-25 02:15 41.18242 28.86093 5422 ft 240 kts 89°
2026-04-25 02:15 41.18265 28.87561 5833 ft 242 kts 88°
2026-04-25 02:15 41.18312 28.89812 6481 ft 244 kts 86°
2026-04-25 02:16 41.19013 28.92619 7212 ft 248 kts 52°
2026-04-25 02:16 41.20389 28.93971 7772 ft 252 kts 20°
2026-04-25 02:16 41.22107 28.94492 8330 ft 256 kts
2026-04-25 02:16 41.23339 28.94543 8531 ft 271 kts 360°
2026-04-25 02:17 41.25242 28.94474 9080 ft 282 kts 358°
2026-04-25 02:17 41.27225 28.94396 9816 ft 286 kts 358°
2026-04-25 02:17 41.29237 28.94340 10405 ft 296 kts 359°
2026-04-25 02:17 41.31371 28.94262 10569 ft 319 kts 355°
2026-04-25 02:18 41.33653 28.93911 10734 ft 341 kts 352°
2026-04-25 02:18 41.36075 28.93403 10937 ft 360 kts 351°
2026-04-25 02:18 41.38586 28.92849 11436 ft 367 kts 351°
2026-04-25 02:18 41.41125 28.92297 12131 ft 370 kts 351°
2026-04-25 02:19 41.43674 28.91760 12853 ft 372 kts 351°
2026-04-25 02:19 41.46243 28.91232 13559 ft 375 kts 351°
2026-04-25 02:19 41.48805 28.90714 14202 ft 379 kts 351°
2026-04-25 02:19 41.51425 28.90188 14876 ft 381 kts 352°
2026-04-25 02:20 41.54059 28.89662 15564 ft 384 kts 352°
2026-04-25 02:20 41.56714 28.89131 16234 ft 387 kts 352°
2026-04-25 02:20 41.59386 28.88596 16879 ft 390 kts 352°
2026-04-25 02:20 41.62080 28.88057 17511 ft 393 kts 352°
2026-04-25 02:21 41.64797 28.87512 18144 ft 396 kts 352°
2026-04-25 02:21 41.67534 28.86963 18697 ft 400 kts 352°
2026-04-25 02:21 41.70300 28.86417 19224 ft 403 kts 354°
2026-04-25 02:21 41.73097 28.86552 19713 ft 406 kts 12°
2026-04-25 02:22 41.75735 28.87919 20264 ft 409 kts 30°
2026-04-25 02:22 41.77980 28.90273 20793 ft 413 kts 45°
2026-04-25 02:22 41.79640 28.93430 21266 ft 419 kts 61°
2026-04-25 02:22 41.80951 28.96931 21773 ft 422 kts 63°
2026-04-25 02:23 41.82222 29.00507 22238 ft 426 kts 63°
2026-04-25 02:23 41.83493 29.04122 22698 ft 429 kts 63°
2026-04-25 02:23 41.84761 29.07704 23162 ft 432 kts 63°
2026-04-25 02:23 41.86064 29.11351 23615 ft 435 kts 63°
2026-04-25 02:24 41.87387 29.15023 23993 ft 437 kts 63°
2026-04-25 02:24 41.88724 29.18712 24370 ft 440 kts 63°
2026-04-25 02:24 41.90067 29.22416 24743 ft 442 kts 63°
2026-04-25 02:24 41.91417 29.26137 25103 ft 445 kts 63°
2026-04-25 02:25 41.92779 29.29896 25454 ft 447 kts 63°
2026-04-25 02:25 41.94142 29.33663 25805 ft 450 kts 63°
2026-04-25 02:25 41.95508 29.37446 26138 ft 452 kts 63°
2026-04-25 02:25 41.96886 29.41268 26462 ft 455 kts 63°
2026-04-25 02:26 41.98266 29.45100 26777 ft 457 kts 63°
2026-04-25 02:26 41.99654 29.48962 27088 ft 460 kts 63°
2026-04-25 02:26 42.01045 29.52838 27390 ft 462 kts 63°
2026-04-25 02:26 42.02444 29.56739 27690 ft 464 kts 63°
2026-04-25 02:27 42.03831 29.60610 27975 ft 467 kts 63°
2026-04-25 02:27 42.05039 29.64682 28261 ft 471 kts 72°
2026-04-25 02:27 42.05726 29.68992 28667 ft 472 kts 81°
2026-04-25 02:27 42.05937 29.73397 29147 ft 472 kts 90°
2026-04-25 02:28 42.05685 29.77798 29608 ft 472 kts 94°
2026-04-25 02:28 42.05336 29.82190 29989 ft 472 kts 95°
2026-04-25 02:28 42.04975 29.86588 30315 ft 472 kts 95°
2026-04-25 02:28 42.04631 29.90976 30658 ft 471 kts 94°
2026-04-25 02:29 42.04306 29.95352 31043 ft 469 kts 94°
2026-04-25 02:29 42.03995 29.99717 31415 ft 468 kts 94°
2026-04-25 02:29 42.03689 30.04080 31748 ft 468 kts 94°
2026-04-25 02:29 42.03382 30.08433 32063 ft 467 kts 94°
2026-04-25 02:30 42.03071 30.12781 32409 ft 466 kts 94°
2026-04-25 02:30 42.02758 30.17116 32766 ft 465 kts 94°
2026-04-25 02:30 42.02445 30.21445 33090 ft 465 kts 94°
2026-04-25 02:30 42.02133 30.25733 33409 ft 464 kts 94°
2026-04-25 02:31 42.01843 30.29699 33696 ft 464 kts 94°
2026-04-25 02:31 42.01527 30.34012 34028 ft 463 kts 94°
2026-04-25 02:31 42.01210 30.38318 34296 ft 462 kts 94°
2026-04-25 02:31 42.00891 30.42622 34535 ft 462 kts 94°
2026-04-25 02:32 42.00572 30.46920 34786 ft 462 kts 94°
2026-04-25 02:32 42.00250 30.51225 35018 ft 462 kts 94°
2026-04-25 02:32 41.99927 30.55521 35265 ft 461 kts 94°
2026-04-25 02:32 41.99720 30.59821 35507 ft 460 kts 89°
2026-04-25 02:33 41.99723 30.64123 35762 ft 459 kts 87°
2026-04-25 02:33 41.99793 30.68350 36011 ft 458 kts 86°
2026-04-25 02:33 41.99872 30.72619 36262 ft 457 kts 86°
2026-04-25 02:33 41.99936 30.76893 36520 ft 456 kts 87°
2026-04-25 02:34 41.99981 30.81153 36781 ft 455 kts 87°
2026-04-25 02:34 42.00012 30.85408 37038 ft 454 kts 87°
2026-04-25 02:34 42.00037 30.89687 37034 ft 460 kts 88°
2026-04-25 02:35 42.00082 30.98369 37056 ft 468 kts 88°
2026-04-25 02:35 42.00630 31.07116 37058 ft 471 kts 78°
2026-04-25 02:36 42.01863 31.15823 37053 ft 476 kts 77°
2026-04-25 02:36 42.03123 31.24527 37047 ft 476 kts 77°
2026-04-25 02:37 42.04341 31.33277 37044 ft 474 kts 77°
2026-04-25 02:37 42.05523 31.42004 37055 ft 474 kts 77°
2026-04-25 02:38 42.06692 31.50738 37057 ft 474 kts 77°
2026-04-25 02:38 42.07858 31.59491 37055 ft 475 kts 77°
2026-04-25 02:39 42.09018 31.68240 37061 ft 475 kts 77°
2026-04-25 02:39 42.10166 31.76949 37061 ft 475 kts 77°
2026-04-25 02:40 42.11315 31.85718 37061 ft 476 kts 77°
2026-04-25 02:40 42.12459 31.94508 37056 ft 476 kts 78°
2026-04-25 02:41 42.13598 32.03306 37057 ft 476 kts 78°
2026-04-25 02:41 42.14728 32.12098 37070 ft 477 kts 78°
2026-04-25 02:42 42.15856 32.20930 37060 ft 477 kts 78°
2026-04-25 02:42 42.16969 32.29696 37057 ft 478 kts 78°
2026-04-25 02:43 42.18092 32.38601 37062 ft 478 kts 78°
2026-04-25 02:43 42.19196 32.47408 37061 ft 479 kts 78°
2026-04-25 02:44 42.20300 32.56271 37061 ft 479 kts 78°
2026-04-25 02:44 42.21399 32.65155 37064 ft 480 kts 78°
2026-04-25 02:45 42.22491 32.74048 37064 ft 480 kts 78°
2026-04-25 02:45 42.23571 32.82894 37061 ft 481 kts 78°
2026-04-25 02:46 42.24653 32.91813 37065 ft 481 kts 78°
2026-04-25 02:46 42.25727 33.00734 37062 ft 482 kts 78°
2026-04-25 02:47 42.26798 33.09686 37063 ft 482 kts 78°
2026-04-25 02:47 42.27862 33.18639 37064 ft 483 kts 78°
2026-04-25 02:48 42.28913 33.27546 37067 ft 483 kts 78°
2026-04-25 02:48 42.29964 33.36516 37065 ft 484 kts 78°
2026-04-25 02:49 42.31009 33.45497 37067 ft 484 kts 78°
2026-04-25 02:49 42.32046 33.54477 37064 ft 484 kts 78°
2026-04-25 02:50 42.33080 33.63490 37062 ft 485 kts 78°
2026-04-25 02:50 42.34106 33.72498 37068 ft 485 kts 78°
2026-04-25 02:51 42.35128 33.81529 37065 ft 485 kts 78°
2026-04-25 02:51 42.36145 33.90559 37065 ft 486 kts 78°
2026-04-25 02:52 42.37274 33.99574 37067 ft 486 kts 77°
2026-04-25 02:52 42.38449 34.08536 37069 ft 486 kts 77°
2026-04-25 02:53 42.39613 34.17544 37069 ft 487 kts 77°
2026-04-25 02:53 42.40760 34.26586 37067 ft 487 kts 77°
2026-04-25 02:54 42.41895 34.35631 37070 ft 487 kts 77°
2026-04-25 02:54 42.43023 34.44694 37068 ft 488 kts 77°
2026-04-25 02:55 42.44144 34.53755 37072 ft 488 kts 77°
2026-04-25 02:55 42.45253 34.62774 37074 ft 489 kts 78°
2026-04-25 02:56 42.46364 34.71870 37073 ft 490 kts 78°
2026-04-25 02:56 42.47469 34.80978 37078 ft 490 kts 78°
2026-04-25 02:57 42.48569 34.90103 37069 ft 490 kts 78°
2026-04-25 02:57 42.49660 34.99227 37071 ft 491 kts 78°
2026-04-25 02:58 42.50748 35.08386 37086 ft 491 kts 78°
2026-04-25 02:58 42.51829 35.17548 37073 ft 492 kts 78°
2026-04-25 02:59 42.52722 35.25167 37081 ft 492 kts 78°
2026-04-25 02:59 42.53792 35.34355 37073 ft 493 kts 78°
2026-04-25 03:00 42.54854 35.43541 37077 ft 493 kts 78°
2026-04-25 03:00 42.55910 35.52748 37077 ft 494 kts 78°
2026-04-25 03:01 42.56954 35.61906 37078 ft 495 kts 78°
2026-04-25 03:01 42.58005 35.71205 37078 ft 495 kts 78°
2026-04-25 03:02 42.59038 35.80404 37076 ft 496 kts 78°
2026-04-25 03:02 42.60072 35.89689 37079 ft 497 kts 78°
2026-04-25 03:03 42.61099 35.98976 37081 ft 498 kts 78°
2026-04-25 03:03 42.62123 36.08307 37080 ft 499 kts 78°
2026-04-25 03:04 42.63132 36.17576 37084 ft 499 kts 78°
2026-04-25 03:04 42.64141 36.26918 37083 ft 500 kts 78°
2026-04-25 03:05 42.65645 36.40981 37090 ft 502 kts 78°
2026-04-25 03:05 42.66641 36.50387 37092 ft 503 kts 78°
2026-04-25 03:06 42.67629 36.59793 37085 ft 503 kts 78°
2026-04-25 03:06 42.68603 36.69148 37087 ft 503 kts 79°
2026-04-25 03:07 42.69580 36.78600 37088 ft 504 kts 79°
2026-04-25 03:07 42.70554 36.88051 37082 ft 504 kts 77°
2026-04-25 03:08 42.72466 36.97127 37097 ft 497 kts 63°
2026-04-25 03:08 42.75180 37.05717 37086 ft 497 kts 62°
2026-04-25 03:09 42.77920 37.14378 37090 ft 498 kts 63°
2026-04-25 03:09 42.80607 37.23090 37089 ft 500 kts 63°
2026-04-25 03:10 42.83272 37.31854 37091 ft 501 kts 63°
2026-04-25 03:10 42.85936 37.40642 37082 ft 501 kts 63°
2026-04-25 03:11 42.88579 37.49383 37094 ft 502 kts 63°
2026-04-25 03:11 42.91242 37.58212 37092 ft 503 kts 63°
2026-04-25 03:12 42.93903 37.67067 37096 ft 504 kts 63°
2026-04-25 03:12 42.96557 37.75928 37096 ft 504 kts 63°
2026-04-25 03:13 42.99185 37.84755 37094 ft 504 kts 64°
2026-04-25 03:13 43.01803 37.93682 37094 ft 504 kts 64°
2026-04-25 03:14 43.04410 38.02613 37091 ft 505 kts 64°
2026-04-25 03:14 43.06967 38.11505 37094 ft 505 kts 64°
2026-04-25 03:15 43.09546 38.20466 37094 ft 506 kts 64°
2026-04-25 03:15 43.12170 38.29396 37092 ft 506 kts 63°
2026-04-25 03:16 43.14801 38.38338 37095 ft 507 kts 64°
2026-04-25 03:16 43.17407 38.47258 37096 ft 507 kts 64°
2026-04-25 03:17 43.20020 38.56254 37100 ft 508 kts 64°
2026-04-25 03:17 43.22627 38.65260 37100 ft 508 kts 64°
2026-04-25 03:18 43.25235 38.74295 37097 ft 508 kts 64°
2026-04-25 03:18 43.27820 38.83325 37096 ft 509 kts 64°
2026-04-25 03:19 43.30371 38.92391 37103 ft 509 kts 65°
2026-04-25 03:19 43.32900 39.01402 37104 ft 509 kts 65°
2026-04-25 03:20 43.35477 39.10464 37103 ft 508 kts 62°
2026-04-25 03:20 43.38438 39.19255 37104 ft 506 kts 60°
2026-04-25 03:21 43.41472 39.28013 37106 ft 507 kts 60°
2026-04-25 03:21 43.44427 39.36819 37104 ft 507 kts 61°
2026-04-25 03:22 43.47353 39.45583 37103 ft 507 kts 61°
2026-04-25 03:22 43.50304 39.54437 37105 ft 508 kts 61°
2026-04-25 03:23 43.53244 39.63280 37116 ft 508 kts 61°
2026-04-25 03:23 43.56187 39.72163 37124 ft 508 kts 62°
2026-04-25 03:24 43.59081 39.80990 37128 ft 509 kts 62°
2026-04-25 03:24 43.61993 39.89924 37124 ft 509 kts 62°
2026-04-25 03:25 43.64897 39.98855 37128 ft 509 kts 62°
2026-04-25 03:25 43.67796 40.07791 37130 ft 509 kts 62°
2026-04-25 03:26 43.70671 40.16671 37125 ft 510 kts 62°
2026-04-25 03:26 43.73572 40.25631 37118 ft 510 kts 63°
2026-04-25 03:27 43.76469 40.34609 37123 ft 510 kts 63°
2026-04-25 03:27 43.79361 40.43609 37104 ft 511 kts 63°
2026-04-25 03:28 43.82226 40.52558 37100 ft 511 kts 63°
2026-04-25 03:28 43.85108 40.61586 37102 ft 512 kts 63°
2026-04-25 03:29 43.87733 40.70764 37080 ft 515 kts 73°
2026-04-25 03:29 43.88721 40.80622 37097 ft 518 kts 85°
2026-04-25 03:30 43.89065 40.90570 37077 ft 520 kts 86°
2026-04-25 03:30 43.89428 41.00594 37078 ft 520 kts 86°
2026-04-25 03:31 43.89845 41.10609 37080 ft 519 kts 85°
2026-04-25 03:31 43.90274 41.20622 37068 ft 520 kts 85°
2026-04-25 03:32 43.90687 41.30586 37083 ft 520 kts 86°
2026-04-25 03:32 43.91090 41.40618 37076 ft 521 kts 86°
2026-04-25 03:33 43.91483 41.50666 37078 ft 522 kts 86°
2026-04-25 03:33 43.91867 41.60727 37080 ft 523 kts 86°
2026-04-25 03:34 43.92224 41.70824 37074 ft 524 kts 86°
2026-04-25 03:34 43.92564 41.80932 37081 ft 525 kts 86°
2026-04-25 03:35 43.92897 41.91021 37082 ft 526 kts 87°
2026-04-25 03:35 43.93224 42.01175 37079 ft 527 kts 87°
2026-04-25 03:36 43.93542 42.11336 37079 ft 528 kts 87°
2026-04-25 03:36 43.93853 42.21537 37070 ft 529 kts 87°
2026-04-25 03:37 43.94153 42.31732 37071 ft 529 kts 87°
2026-04-25 03:37 43.94445 42.41939 37064 ft 530 kts 88°
2026-04-25 03:38 43.94727 42.52148 37069 ft 530 kts 88°
2026-04-25 03:38 43.95002 42.62374 37067 ft 530 kts 88°
2026-04-25 03:39 43.95140 42.72616 37065 ft 531 kts 90°
2026-04-25 03:39 43.95154 42.82858 37072 ft 530 kts 90°
2026-04-25 03:40 43.95161 42.93025 37062 ft 530 kts 90°
2026-04-25 03:40 43.95181 43.03253 37056 ft 529 kts 90°
2026-04-25 03:41 43.95203 43.13456 37052 ft 528 kts 90°
2026-04-25 03:41 43.95217 43.23646 37042 ft 528 kts 90°
2026-04-25 03:42 43.95220 43.32126 37030 ft 528 kts 90°
2026-04-25 03:42 43.95214 43.44021 37013 ft 527 kts 91°
2026-04-25 03:43 43.95198 43.54144 37005 ft 527 kts 91°
2026-04-25 03:43 43.95173 43.64320 36998 ft 528 kts 91°
2026-04-25 03:44 43.95145 43.72783 36988 ft 528 kts 91°
2026-04-25 03:44 43.95104 43.82969 36985 ft 528 kts 91°
2026-04-25 03:45 43.95054 43.93162 36981 ft 528 kts 91°
2026-04-25 03:45 43.94994 44.03358 36987 ft 528 kts 92°
2026-04-25 03:46 43.94925 44.13587 36980 ft 529 kts 92°
2026-04-25 03:46 43.94848 44.23809 36986 ft 529 kts 92°
2026-04-25 03:47 43.94761 44.34034 36992 ft 530 kts 92°
2026-04-25 03:47 43.94665 44.44199 36995 ft 530 kts 92°
2026-04-25 03:48 43.94560 44.54441 36996 ft 531 kts 92°
2026-04-25 03:48 43.94445 44.64658 37005 ft 532 kts 93°
2026-04-25 03:49 43.94321 44.74920 37003 ft 532 kts 93°
2026-04-25 03:49 43.94188 44.85170 37010 ft 533 kts 93°
2026-04-25 03:50 43.94045 44.95472 37009 ft 534 kts 93°
2026-04-25 03:50 43.93893 45.05790 37011 ft 535 kts 93°
2026-04-25 03:51 43.93731 45.16107 37018 ft 535 kts 94°
2026-04-25 03:51 43.93561 45.26373 37016 ft 536 kts 94°
2026-04-25 03:52 43.93380 45.36661 37026 ft 537 kts 94°
2026-04-25 03:52 43.93191 45.46939 37031 ft 538 kts 94°
2026-04-25 03:53 43.92991 45.57322 37026 ft 538 kts 94°
2026-04-25 03:53 43.92780 45.67718 37028 ft 539 kts 94°
2026-04-25 03:54 43.92558 45.78113 37030 ft 539 kts 94°
2026-04-25 03:54 43.92327 45.88520 37035 ft 539 kts 95°
2026-04-25 03:55 43.91520 45.98820 37039 ft 536 kts 102°
2026-04-25 03:55 43.90342 46.09046 37037 ft 537 kts 102°
2026-04-25 03:56 43.89183 46.19276 37039 ft 537 kts 102°
2026-04-25 03:56 43.88078 46.29525 37035 ft 537 kts 102°
2026-04-25 03:57 43.86980 46.39774 37037 ft 537 kts 102°
2026-04-25 03:57 43.85873 46.49949 37037 ft 536 kts 102°
2026-04-25 03:58 43.84751 46.60153 37039 ft 535 kts 102°
2026-04-25 03:58 43.82768 46.69934 37046 ft 521 kts 122°
2026-04-25 03:59 43.78751 46.77959 37031 ft 501 kts 142°
2026-04-25 03:59 43.73695 46.84493 37047 ft 499 kts 144°
2026-04-25 04:00 43.68613 46.90996 37038 ft 498 kts 144°
2026-04-25 04:00 43.66127 46.94221 36983 ft 487 kts 144°
2026-04-25 04:00 43.63660 46.97444 36697 ft 478 kts 144°
2026-04-25 04:01 43.61284 47.00551 36159 ft 474 kts 144°
2026-04-25 04:01 43.58894 47.03672 35572 ft 472 kts 145°
2026-04-25 04:01 43.56516 47.06769 35004 ft 469 kts 146°
2026-04-25 04:01 43.54145 47.09855 34451 ft 467 kts 146°
2026-04-25 04:02 43.51783 47.12925 33876 ft 465 kts 146°
2026-04-25 04:02 43.49435 47.15973 33226 ft 463 kts 147°
2026-04-25 04:02 43.47092 47.19012 32593 ft 461 kts 147°
2026-04-25 04:02 43.44763 47.22029 31970 ft 459 kts 147°
2026-04-25 04:03 43.42439 47.25036 31363 ft 457 kts 147°
2026-04-25 04:03 43.40132 47.28018 30772 ft 454 kts 147°
2026-04-25 04:03 43.37829 47.30993 30191 ft 452 kts 147°
2026-04-25 04:03 43.35535 47.33950 29507 ft 450 kts 147°
2026-04-25 04:04 43.33282 47.36853 28831 ft 448 kts 147°
2026-04-25 04:04 43.31011 47.39775 28142 ft 445 kts 147°
2026-04-25 04:04 43.28758 47.42672 27509 ft 443 kts 147°
2026-04-25 04:04 43.26514 47.45552 26869 ft 440 kts 147°
2026-04-25 04:05 43.24286 47.48409 26247 ft 437 kts 147°
2026-04-25 04:05 43.22071 47.51249 25635 ft 435 kts 147°
2026-04-25 04:05 43.19865 47.54073 25032 ft 432 kts 146°
2026-04-25 04:05 43.17674 47.56874 24453 ft 429 kts 146°
2026-04-25 04:06 43.15489 47.59665 23884 ft 426 kts 146°
2026-04-25 04:06 43.14062 47.61488 23498 ft 424 kts 146°
2026-04-25 04:06 43.11911 47.64239 22828 ft 422 kts 145°
2026-04-25 04:06 43.09820 47.67144 22166 ft 423 kts 141°
2026-04-25 04:07 43.07839 47.70108 21536 ft 422 kts 140°
2026-04-25 04:07 43.05886 47.73092 20922 ft 419 kts 140°
2026-04-25 04:07 43.03967 47.76014 20309 ft 417 kts 140°
2026-04-25 04:07 43.02030 47.78934 19714 ft 414 kts 140°
2026-04-25 04:08 43.00090 47.81830 19130 ft 411 kts 140°
2026-04-25 04:08 42.98186 47.84661 18547 ft 399 kts 140°
2026-04-25 04:08 42.96330 47.87411 17919 ft 388 kts 140°
2026-04-25 04:08 42.94516 47.90091 17269 ft 379 kts 140°
2026-04-25 04:09 42.92746 47.92704 16636 ft 371 kts 140°
2026-04-25 04:09 42.91006 47.95272 16023 ft 364 kts 140°
2026-04-25 04:09 42.89155 47.97505 15380 ft 346 kts 157°
2026-04-25 04:09 42.87052 47.98945 14828 ft 335 kts 162°
2026-04-25 04:10 42.84947 48.00270 14236 ft 330 kts 163°
2026-04-25 04:10 42.82891 48.01554 13648 ft 327 kts 162°
2026-04-25 04:10 42.80825 48.02852 12999 ft 324 kts 162°
2026-04-25 04:10 42.78789 48.04142 12383 ft 321 kts 162°
2026-04-25 04:11 42.74790 48.06694 11173 ft 314 kts 161°
2026-04-25 04:11 42.72816 48.07957 10572 ft 310 kts 160°
2026-04-25 04:11 42.70902 48.09183 10004 ft 306 kts 160°
2026-04-25 04:12 42.68982 48.10412 9366 ft 303 kts 160°
2026-04-25 04:12 42.67082 48.11629 8740 ft 300 kts 159°
2026-04-25 04:12 42.65144 48.12532 8092 ft 291 kts 176°
2026-04-25 04:12 42.63136 48.12636 7556 ft 285 kts 181°
2026-04-25 04:13 42.61163 48.12688 7004 ft 282 kts 180°
2026-04-25 04:13 42.59228 48.12753 6476 ft 280 kts 179°
2026-04-25 04:13 42.57310 48.12581 5995 ft 273 kts 195°
2026-04-25 04:13 42.55535 48.11785 5622 ft 265 kts 199°
2026-04-25 04:14 42.53891 48.10732 5196 ft 260 kts 218°
2026-04-25 04:14 42.52795 48.08821 4723 ft 257 kts 248°
2026-04-25 04:14 42.52527 48.06488 4265 ft 254 kts 277°
2026-04-25 04:14 42.53109 48.04298 3853 ft 243 kts 301°
2026-04-25 04:15 42.53955 48.02389 3600 ft 232 kts 302°
2026-04-25 04:15 42.54781 48.00524 3370 ft 229 kts 302°
2026-04-25 04:15 42.55583 47.98702 3235 ft 219 kts 302°
2026-04-25 04:15 42.56343 47.96967 3086 ft 211 kts 302°
2026-04-25 04:16 42.57114 47.95204 3041 ft 225 kts 302°
2026-04-25 04:16 42.57921 47.93365 3010 ft 230 kts 302°
2026-04-25 04:16 42.58737 47.91500 3004 ft 229 kts 302°
2026-04-25 04:16 42.59547 47.89640 2998 ft 229 kts 302°
2026-04-25 04:17 42.60355 47.87785 2991 ft 229 kts 302°
2026-04-25 04:17 42.61165 47.85923 3004 ft 229 kts 302°
2026-04-25 04:17 42.61978 47.84057 2998 ft 230 kts 302°
2026-04-25 04:17 42.62795 47.82186 2992 ft 233 kts 302°
2026-04-25 04:18 42.63832 47.80566 2992 ft 222 kts 324°
2026-04-25 04:18 42.65085 47.79414 2996 ft 213 kts 328°
2026-04-25 04:18 42.66267 47.78378 2984 ft 195 kts 329°
2026-04-25 04:18 42.67359 47.77441 2970 ft 175 kts 329°
2026-04-25 04:19 42.68352 47.76594 2938 ft 167 kts 329°
2026-04-25 04:19 42.69326 47.75765 2765 ft 163 kts 329°
2026-04-25 04:19 42.70269 47.74962 2547 ft 157 kts 329°
2026-04-25 04:19 42.71165 47.74197 2345 ft 152 kts 329°
2026-04-25 04:20 42.72060 47.73434 2138 ft 153 kts 329°
2026-04-25 04:20 42.72961 47.72668 1923 ft 152 kts 329°
2026-04-25 04:20 42.73854 47.71906 1714 ft 150 kts 329°
2026-04-25 04:20 42.74728 47.71161 1496 ft 150 kts 328°
2026-04-25 04:21 42.75613 47.70407 1249 ft 148 kts 327°
2026-04-25 04:21 42.76474 47.69674 1053 ft 145 kts 327°
2026-04-25 04:21 42.77328 47.68946 846 ft 145 kts 326°
2026-04-25 04:21 42.78179 47.68220 643 ft 142 kts 327°
2026-04-25 04:22 42.79008 47.67508 443 ft 140 kts 326°
2026-04-25 04:22 42.79845 47.66805 299 ft 142 kts 326°
2026-04-25 04:22 42.80693 47.66078 92 ft 144 kts 326°
2026-04-25 04:22 42.81500 47.65397 20 ft 116 kts 328°
2026-04-25 04:23 42.82005 47.64966 18 ft 57 kts 328°
2026-04-25 04:23 42.82327 47.64693 22 ft 49 kts 328°
2026-04-25 04:23 42.82552 47.64503 20 ft 28 kts 328°
2026-04-25 04:23 42.82659 47.64415 19 ft 13 kts 346°
2026-04-25 04:24 42.82693 47.64451 19 ft 5 kts 104°
2026-04-25 04:24 42.82654 47.64460 19 ft 9 kts 193°
2026-04-25 04:24 42.82573 47.64487 20 ft 16 kts 148°
2026-04-25 04:24 42.82456 47.64585 20 ft 23 kts 147°
2026-04-25 04:25 42.82301 47.64718 22 ft 29 kts 148°
2026-04-25 04:25 42.82109 47.64881 20 ft 35 kts 148°
2026-04-25 04:25 42.81927 47.65044 18 ft 20 kts 129°
2026-04-25 04:25 42.81960 47.65206 20 ft 18 kts 58°
2026-04-25 04:26 42.82022 47.65343 20 ft 14 kts 63°
2026-04-25 04:26 42.82002 47.65428 20 ft 8 kts 148°
2026-04-25 04:26 42.81953 47.65469 20 ft 8 kts 148°
2026-04-25 04:26 42.81905 47.65509 20 ft 8 kts 146°
2026-04-25 04:27 42.81903 47.65582 20 ft 9 kts 57°
2026-04-25 04:27 42.81921 47.65623 20 ft 2 kts 58°
2026-04-25 04:27 42.81923 47.65626 20 ft 0 kts 58°